Change the Weather History Date:

Thursday, July 25, 2013

  Actual Average Record
Temperature  
Mean Temperature 70 °F 76 °F  
Max Temperature 81 °F 84 °F 105 °F (1934)
Min Temperature 58 °F 68 °F 58 °F (2013)
Degree Days  
Heating Degree Days 0 0  
Month to date heating degree days 0 0  
Since 1 June heating degree days 36 31  
Since 1 July heating degree days 0 0  
Cooling Degree Days 5 11  
Month to date cooling degree days 296 273  
Year to date cooling degree days 583 557  
Since 1 June cooling degree days 477 483  
Growing Degree Days 18 (Base 50)    
Moisture  
Dew Point 51 °F    
Average Humidity 51    
Maximum Humidity 78    
Minimum Humidity 27    
Precipitation  
Precipitation 0.00 in 0.13 in 1.83 in (2001)
Month to date precipitation 0.94 3.16  
Year to date precipitation 21.81 21.71  
Sea Level Pressure  
Sea Level Pressure 30.05 in    
Wind  
Wind Speed 4 mph (WSW)    
Max Wind Speed 13 mph    
Max Gust Speed 18 mph    
Visibility 10 miles    
Events      
T = Trace of Precipitation, MM = Missing Value Source: NWS Daily Summary

Daily Weather History Graph

Daily Weather History Graph

Search for Another Location

Airport or City:

Trip Planner

Search our weather history database for the weather conditions in past years. The results will help you decide how hot, cold, wet, or windy it might be!

Date:

Astronomy

Jul. 25, 2013 Rise Set
Actual Time 5:38 AM CDT 8:16 PM CDT
Civil Twilight 5:06 AM CDT 8:48 PM CDT
Nautical Twilight 4:26 AM CDT 9:28 PM CDT
Astronomical Twilight 3:40 AM CDT 10:13 PM CDT
Moon 9:52 PM CDT (7/25) 9:11 AM CDT (7/25)
Length of Visible Light 15h 41m
Length of Day
14h 37m
Waning Gibbous, 88% of the Moon is Illuminated
Jul 25
Waning Gibbous
Jul 29
Last Quarter
Aug 6
New
Aug 14
First Quarter
Aug 20
Full

Hourly Weather History & Observations

Time (CDT) Temp. Dew Point Humidity Pressure Visibility Wind Dir Wind Speed Gust Speed Precip Events Conditions
12:51 AM 64.0 °F 48.9 °F 58% 30.05 in 10.0 mi Calm Calm - N/A   Clear
1:51 AM 61.0 °F 50.0 °F 67% 30.03 in 10.0 mi WNW 3.5 mph - N/A   Clear
2:51 AM 60.1 °F 50.0 °F 69% 30.04 in 10.0 mi Calm Calm - N/A   Clear
3:51 AM 59.0 °F 51.1 °F 75% 30.04 in 10.0 mi WNW 3.5 mph - N/A   Clear
4:51 AM 57.9 °F 51.1 °F 78% 30.06 in 10.0 mi West 4.6 mph - N/A   Clear
5:51 AM 59.0 °F 52.0 °F 78% 30.07 in 10.0 mi Calm Calm - N/A   Scattered Clouds
6:51 AM 61.0 °F 52.0 °F 72% 30.08 in 10.0 mi Calm Calm - N/A   Scattered Clouds
7:51 AM 66.0 °F 52.0 °F 60% 30.09 in 10.0 mi West 4.6 mph - N/A   Scattered Clouds
8:51 AM 70.0 °F 53.1 °F 55% 30.09 in 10.0 mi Variable 3.5 mph - N/A   Partly Cloudy
9:51 AM 71.1 °F 51.1 °F 49% 30.09 in 10.0 mi Calm Calm - N/A   Partly Cloudy
10:51 AM 73.9 °F 50.0 °F 43% 30.08 in 10.0 mi Calm Calm - N/A   Partly Cloudy
11:51 AM 75.9 °F 48.9 °F 38% 30.08 in 10.0 mi Calm Calm - N/A   Scattered Clouds
12:51 PM 78.1 °F 48.9 °F 36% 30.08 in 10.0 mi Calm Calm - N/A   Scattered Clouds
1:51 PM 79.0 °F 48.0 °F 34% 30.07 in 10.0 mi West 6.9 mph - N/A   Scattered Clouds
2:51 PM 79.0 °F 48.9 °F 35% 30.06 in 10.0 mi SSW 4.6 mph - N/A   Scattered Clouds
3:51 PM 80.1 °F 52.0 °F 38% 30.04 in 10.0 mi SE 9.2 mph - N/A   Scattered Clouds
4:51 PM 79.0 °F 50.0 °F 36% 30.03 in 10.0 mi West 4.6 mph - N/A   Mostly Cloudy
5:51 PM 80.1 °F 51.1 °F 36% 30.03 in 10.0 mi WSW 3.5 mph - N/A   Mostly Cloudy
6:51 PM 79.0 °F 52.0 °F 39% 30.02 in 10.0 mi WSW 5.8 mph - N/A   Mostly Cloudy
7:51 PM 77.0 °F 52.0 °F 42% 30.03 in 10.0 mi Variable 5.8 mph - N/A   Mostly Cloudy
8:51 PM 75.0 °F 54.0 °F 48% 30.02 in 10.0 mi WSW 6.9 mph - N/A   Mostly Cloudy
9:51 PM 73.9 °F 55.0 °F 52% 30.04 in 10.0 mi SW 5.8 mph - N/A   Overcast
10:51 PM 73.9 °F 55.0 °F 52% 30.03 in 10.0 mi SW 6.9 mph - N/A   Overcast
11:51 PM 72.0 °F 55.0 °F 55% 30.03 in 10.0 mi SSW 6.9 mph - N/A   Mostly Cloudy